Accueil
METAR-TAF:

METAR-TAF

Aéroports :

Aéroport de Calais

Calais, France

latitude: 50-57-39N, longitude: 001-57-05E, altitude: 4 m

Observation

Le bulletin a été fait il y a 17 minutes, à 10:30 UTC
Vent 16 kt de nord-ouest
Température 10°C
Humidité 71%
Pression 1011 hPa
Visibilité 10 km ou plus
Nuages épars à une hauteur de 3100 ft
Ciel couvert à une hauteur de 4300 ft

METAR: LFAC 161030Z AUTO 31016KT 9999 SCT031 OVC043 10/05 Q1011

Heure: 12:47 (10:47 UTC)


TAF: absent

Observations et prévisions météorologiques de plus de 4000 aéroports (messages METAR et TAF).

Les stations disponibles sont représentées par des disques jaunes et rouges sur la carte.

Passer la souris dessus pour voir le nom de la station.

Cliquer dessus pour voir les observations et prévisions météorologiques.

Pour changer de carte: cliquez sur les boutons verts avec une croix noire pour zoomer, sur le bouton vert avec un tiret pour effectuer un zoom arrière, ou sur les flèches vertes pour les cartes adjacentes.


METAR-TAF: